Flag for Portugal Weather past 2 weeks in Lisbon, Portugal

Now
63 °F

Clear.


Feels Like: 63 °F
Forecast: 66 / 84 °F
Wind: 8 mph from North

Location: Lisbon Portela Airport

Current Time: Jul 28, 2014 at 6:13:15 AM

Latest Report: Jul 28, 2014 at 5:30 AM


Visibility: 5 mi

Pressure: 30.01 "Hg

Humidity: 94%

Dew point: 61 °F

Location of LisbonLocation

Historic Weather in Lisbon — Graph

°F

Lisbon temperature yesterday

Maximum temperature yesterday: 81 °F (at 2:30 PM)
Minimum temperature yesterday: 63 °F (at 3:30 AM)
Average temperature yesterday: 70 °F

Past Weeks' High & Low Weather Summary

 TemperatureHumidityPressure
High91 °F (Jul 16, 5:00 PM)100% (Jul 27, 7:00 AM)30.18 "Hg (Jul 27, 7:00 AM)
Low59 °F (Jul 21, 4:00 AM)26% (Jul 16, 5:00 PM)29.89 "Hg (Jul 19, 5:00 AM)
Average70 °F72%30.01 "Hg
* Reported Jul 13 4:00 AM — Jul 28 4:30 AM, Lisbon, Weather by CustomWeather, © 2014

Note: Actual official high and low records may vary slightly from our data, if they occured in-between our weather recording intervals... More about our weather records

Advertising

Lisbon weather history for previous 24 hours

 ConditionsComfort  
Time TempWeatherWind HumidityBarometerVisibility
4:30 AM
Jul 28
63 °FPassing clouds.8 mph88%30.01 "HgN/A
4:00 AM64 °FClear.8 mph83%30.01 "Hg10 mi
3:30 AM64 °FClear.7 mph83%30.01 "Hg10 mi
3:00 AM64 °FPassing clouds.3 mph88%30.01 "HgN/A
2:30 AM64 °FPassing clouds.7 mph88%30.01 "HgN/A
2:00 AM66 °FClear.8 mph83%30.01 "Hg10 mi
1:30 AM66 °FClear.6 mph83%30.04 "Hg10 mi
1:00 AM66 °FClear.7 mph83%30.04 "Hg10 mi
12:00 AM66 °FClear.8 mph88%30.04 "Hg10 mi
11:30 PM
Jul 27
66 °FClear.9 mph88%30.04 "Hg10 mi
11:00 PM66 °FClear.9 mph88%30.04 "Hg10 mi
10:30 PM66 °FClear.10 mph88%30.04 "Hg10 mi
10:00 PM68 °FPassing clouds.9 mph78%30.01 "HgN/A
9:30 PM68 °FPassing clouds.10 mph78%30.01 "HgN/A
9:00 PM70 °FSunny.9 mph73%30.01 "Hg10 mi
8:30 PM72 °FPassing clouds.10 mph73%30.01 "HgN/A
8:00 PM75 °FPassing clouds.8 mph61%30.01 "HgN/A
7:30 PM77 °FPassing clouds.6 mph57%29.98 "HgN/A
7:00 PM79 °FPassing clouds.7 mph48%30.01 "HgN/A
6:30 PM79 °FPassing clouds.7 mph48%29.98 "HgN/A
6:00 PM79 °FSunny.8 mph45%30.01 "Hg10 mi
5:30 PM79 °FPassing clouds.8 mph48%30.01 "HgN/A
5:00 PM81 °FPassing clouds.8 mph48%30.01 "HgN/A
4:30 PM79 °FPassing clouds.9 mph51%30.01 "HgN/A
4:00 PM81 °FPassing clouds.9 mph48%30.01 "HgN/A
3:00 PM81 °FPassing clouds.8 mph48%30.01 "HgN/A
2:30 PM81 °FPassing clouds.8 mph51%30.01 "HgN/A
2:00 PM79 °FSunny.8 mph54%30.04 "Hg10 mi
1:30 PM79 °FSunny.7 mph54%30.04 "Hg10 mi
1:00 PM77 °FPassing clouds.7 mph57%30.04 "HgN/A
12:30 PM77 °FPassing clouds.7 mph57%30.04 "HgN/A
12:00 PM75 °FSunny.7 mph61%30.04 "Hg10 mi
11:30 AM73 °FPassing clouds.8 mph65%30.04 "HgN/A
11:00 AM72 °FPassing clouds.8 mph69%30.04 "HgN/A
10:30 AM72 °FPassing clouds.5 mph69%30.04 "HgN/A
10:00 AM72 °FPassing clouds.3 mph69%30.04 "HgN/A
9:30 AM68 °FPartly sunny.3 mph83%30.01 "HgN/A
9:00 AM68 °FPartly sunny.3 mph83%30.01 "Hg6 mi
8:30 AM64 °FPartly sunny.3 mph94%30.01 "Hg4 mi
8:00 AM63 °FFog.5 mph100%30.01 "Hg3 mi
7:30 AM63 °FFog.2 mph100%30.01 "Hg2 mi
7:00 AM63 °FFog.2 mph100%30.01 "Hg1 mi
6:00 AM63 °FFog.5 mph94%29.98 "Hg2 mi
Weather by CustomWeather, © 2014

See weather overviewHow to use our weather pages